Location: Belmont
(13.0833°N, 59.6000°W)
Time: 02:49:45
(UTC+00:00)

Cosmos 2154 Rocket - Pass Details

Date: 17 September 2019
Orbit: 965 x 997 km, 82.9° (Epoch: 22 October)

Event Time Altitude Azimuth Distance (km) Brightness Sun altitude
Rises 23:40:26 0° 357° (N) 3,645 7.1 -25.6°
Reaches altitude 10° 23:42:56 10° 357° (N) 2,700 6.4 -26.2°
Maximum altitude 23:49:07 87° 85° (E) 973 3.8 -27.7°
Enters shadow 23:51:00 48° 173° (S) 1,238 4.3 -28.1°
